FENGYUN 1C DEB, 46992

Orbit data source: Space-Track

FENGYUN 1C DEB, 46992 is space debris in SSO originally from a launch on Mon, 10 May 1999 UTC launched from the Taiyaun Space Center, China (TSC). Fengyun 1C debris stems from the Chinese weather satellite Fengyun-1C, which was intentionally destroyed by a Chinese anti-satellite missile in 2007. This event dramatically increased the amount of space debris, with thousands of trackable fragments posing hazards to satellites and human spaceflight. The Fengyun 1C debris cloud has become a focal point in discussions about space sustainability and the need for international regulations to prevent the creation of new debris.

Loading next visibility...
Identifier
46992, 1999-025EZS
Orbit
SSO
Country
Flag of CNCN / PRC
Related business
Manufacturer
Unknown
Mission
Spacecraft
Bus & Motor
Unknown
Mass
Unknown
Launch date (UTC)
1999-05-10 (27 years ago)
Launch vehicle
Unknown
Launch site
Taiyaun Space Center, China (TSC)
Object type
Payload
Rocket body
Debris
Shape & HBR
Unknown shape, 0.1 m
Radar Cross Section
Small (<0.1 m²)

Expand to show TLE details & history
Last TLE update: 6 days ago

TLE from 6 days ago
0 FENGYUN 1C DEB
1 46992U 99025EZS 26167.67999675  .00000504  00000-0  35812-3 0  9996
2 46992  98.9375 155.0392 0071864   6.3277 353.8779 14.00944958635605
Epoch: 2026-06-16T16:19Z
TLE epoch observation values (Epoch: 2026-06-16T16:19:11.719Z)
Latitude
-0.00004°
Longitude
5.29182°
Altitude
841.462 km
Speed
7.459 km/s
True Right ascension
10h 20m 09s
True Declination
0° 00' 00"
Sunlit
Object was in daylight at epoch
Visualization orbit readout
Latitude
Unknown
Longitude
Unknown
Altitude
Unknown
Speed
Unknown
Apparent Right ascension
Unknown
Apparent Declination
Unknown
Sunlit
N/A
Visualization observer readout
Local Sidereal Time
23:19:21
Azimuth
Unknown
Elevation
Unknown
Doppler factor
Unknown
Orbital elements
Apogee altitude
939.935 km
Perigee altitude
835.504 km
Semi-major axis
7,265.857 km
Eccentricity
0.00719
Inclination
98.9375°
RAAN
155.0392°
Arg. of periapsis
6.3277°
True anomaly
353.78928°
Mean anomaly
353.8779°
Eccentric anomaly
353.83367°
Mean motion
3.50439 °/min
Orbital period
102.73 mins
BSTAR
0.00035812
Loading maneuver chart data...
Computing Atmospheric mass density...

Documentation

Showing up to 5 results
|